Simultaneous Nadir Overpasses (SNOs) Predictions

Prediction of SNOs between GOES-17 and NOAA-20 Satellite Orbit:

Table of predicted SNOs for the next 14.0 days since TLE Epoch: 10/1/2022
Index Date Time (GOES-17) GOES-17 Lat,Lon NOAA-20 Lat,Lon Distance(km) Time Diff (sec)
1 10/01/2022 22:30:28 -0.06,-137.32 0.23,-136.11 138.46 80
2 10/03/2022 10:49:35 0.05,-137.30 0.97,-141.37 464.08 80
3 10/04/2022 10:33:31 0.05,-137.29 -0.04,-136.84 50.42 80
4 10/06/2022 22:34:03 -0.04,-137.24 -0.10,-137.63 43.71 80
5 10/07/2022 22:17:58 -0.04,-137.22 0.86,-133.08 470.89 80
6 10/09/2022 10:37:06 0.03,-137.20 0.28,-138.36 131.93 80
7 10/10/2022 10:21:02 0.04,-137.18 -0.73,-133.83 382.44 80
8 10/11/2022 22:40:18 -0.03,-137.15 -0.47,-139.14 226.57 80
9 10/12/2022 22:24:14 -0.04,-137.12 0.55,-134.61 287.42 80
10 10/14/2022 10:43:21 0.03,-137.09 0.64,-139.87 316.58 80
